Weather History for KTYQ - January, 2013

Change the Weather History Date:

Saturday, January 12, 2013

  Actual Average (KEYE) Record (KEYE)
Temperature  
Mean Temperature 54 °F 28 °F  
Max Temperature 62 °F 35 °F 66 °F (2005)
Min Temperature 46 °F 21 °F -8 °F (1997)
Degree Days  
Heating Degree Days 11 37  
Month to date heating degree days 444  
Since 1 July heating degree days 2500  
Cooling Degree Days 0 0  
Month to date cooling degree days 0  
Year to date cooling degree days 0  
Growing Degree Days 4 (Base 50)    
Moisture  
Dew Point 49 °F    
Average Humidity 79    
Maximum Humidity 91    
Minimum Humidity 64    
Precipitation  
Precipitation 1.28 in 0.09 in 1.48 in (2013)
Month to date precipitation 1.21  
Year to date precipitation 1.21  
Sea Level Pressure  
Sea Level Pressure 29.90 in    
Wind  
Wind Speed 9 mph (SSW)    
Max Wind Speed 14 mph    
Max Gust Speed 18 mph    
Visibility 8 miles    
Events Rain , Thunderstorm    
T = Trace of Precipitation, MM = Missing Value Source: NWS Daily Summary

Daily Weather History Graph

Daily Weather History Graph

Search for Another Location

Airport or City:

Trip Planner

Search our weather history database for the weather conditions in past years. The results will help you decide how hot, cold, wet, or windy it might be!

Date:

Astronomy

Jan. 12, 2013 Rise Set
Actual Time 8:06 AM EST 5:41 PM EST
Civil Twilight 7:36 AM EST 6:11 PM EST
Nautical Twilight 7:02 AM EST 6:44 PM EST
Astronomical Twilight 6:29 AM EST 7:17 PM EST
Moon 8:24 AM EST (1/12) 7:09 PM EST (1/12)
Length of Visible Light 10h 35m
Length of Day
9h 35m
New Moon, 1% of the Moon is Illuminated
Jan 12
New Moon
Jan 18
First Quarter
Jan 26
Full
Feb 3
Last Quarter
Feb 10
New

Hourly Weather History & Observations

Time (EST) Temp. Windchill Dew Point Humidity Pressure Visibility Wind Dir Wind Speed Gust Speed Precip Events Conditions
12:15 AM 51.8 °F - 45.0 °F 77% 29.87 in 10.0 mi SSW 13.8 mph 18.4 mph N/A   Clear
12:35 AM 52.7 °F - 44.6 °F 74% 29.88 in 10.0 mi SSW 12.7 mph 17.3 mph N/A   Clear
12:55 AM 52.7 °F - 44.2 °F 73% 29.88 in 10.0 mi SSW 13.8 mph 18.4 mph N/A   Clear
1:15 AM 52.3 °F - 43.7 °F 72% 29.87 in 10.0 mi SSW 9.2 mph - N/A   Clear
1:35 AM 52.7 °F - 43.7 °F 71% 29.88 in 10.0 mi SSW 11.5 mph - N/A   Clear
1:55 AM 52.3 °F - 43.7 °F 72% 29.89 in 10.0 mi SSW 10.4 mph - N/A   Clear
2:15 AM 50.9 °F - 43.0 °F 74% 29.89 in 10.0 mi South 8.1 mph - N/A   Clear
2:35 AM 51.4 °F - 43.7 °F 75% 29.91 in 10.0 mi SSW 11.5 mph - N/A   Clear
2:55 AM 52.2 °F - 44.1 °F 74% 29.91 in 10.0 mi SSW 10.4 mph 17.3 mph N/A   Clear
3:15 AM 49.8 °F - 42.8 °F 77% 29.91 in 10.0 mi South 6.9 mph - N/A   Clear
3:35 AM 46.4 °F 43.5 °F 41.5 °F 83% 29.91 in 10.0 mi South 5.8 mph - N/A   Clear
4:15 AM 48.2 °F - 42.8 °F 82% 29.90 in 10.0 mi South 6.9 mph - N/A   Clear
4:35 AM 48.4 °F - 43.3 °F 83% 29.90 in 10.0 mi South 8.1 mph - N/A   Clear
4:55 AM 48.6 °F - 43.7 °F 83% 29.91 in 10.0 mi SSW 6.9 mph - N/A   Clear
5:15 AM 51.3 °F - 46.4 °F 83% 29.91 in 10.0 mi SSW 11.5 mph - N/A   Clear
5:35 AM 53.4 °F - 47.1 °F 79% 29.90 in 10.0 mi SSW 11.5 mph - N/A   Clear
5:55 AM 52.9 °F - 47.3 °F 81% 29.90 in 10.0 mi SSW 9.2 mph - N/A   Clear
6:15 AM 52.9 °F - 47.3 °F 81% 29.91 in 10.0 mi SW 11.5 mph - N/A   Clear
6:35 AM 52.2 °F - 46.9 °F 82% 29.91 in 10.0 mi SW 10.4 mph - N/A   Clear
7:15 AM 51.8 °F - 46.6 °F 82% 29.94 in 10.0 mi SW 10.4 mph - N/A   Clear
7:35 AM 52.3 °F - 46.9 °F 82% 29.94 in 10.0 mi SSW 8.1 mph - N/A   Clear
7:55 AM 52.3 °F - 47.1 °F 82% 29.94 in 10.0 mi SSW 8.1 mph - N/A   Clear
8:15 AM 52.2 °F - 47.3 °F 83% 29.96 in 10.0 mi SSW 8.1 mph - N/A   Clear
8:35 AM 51.4 °F - 46.9 °F 85% 29.96 in 10.0 mi SSW 6.9 mph - N/A   Clear
8:55 AM 51.4 °F - 47.3 °F 86% 29.96 in 10.0 mi South 5.8 mph - N/A   Clear
9:15 AM 51.8 °F - 47.8 °F 86% 29.97 in 10.0 mi SSW 6.9 mph - N/A   Clear
9:35 AM 53.8 °F - 49.5 °F 85% 29.98 in 10.0 mi SSW 6.9 mph - N/A   Clear
9:55 AM 55.4 °F - 50.2 °F 83% 29.97 in 10.0 mi SSW 10.4 mph - N/A   Clear
10:15 AM 57.0 °F - 50.9 °F 80% 29.97 in 10.0 mi SSW 11.5 mph - N/A   Clear
10:35 AM 57.6 °F - 51.3 °F 79% 29.98 in 10.0 mi SSW 11.5 mph 17.3 mph N/A   Clear
10:55 AM 58.6 °F - 51.4 °F 77% 29.99 in 10.0 mi SW 11.5 mph - N/A   Clear
11:15 AM 58.1 °F - 51.1 °F 77% 29.98 in 10.0 mi SW 11.5 mph - N/A   Clear
11:55 AM 59.0 °F - 51.8 °F 77% 29.98 in 10.0 mi SW 8.1 mph - N/A   Clear
12:15 PM 59.0 °F - 51.4 °F 76% 29.96 in 10.0 mi SW 10.4 mph - N/A   Clear
12:35 PM 59.9 °F - 51.3 °F 73% 29.96 in 10.0 mi SW 8.1 mph - N/A   Clear
12:55 PM 60.1 °F - 50.7 °F 71% 29.97 in 10.0 mi WSW 9.2 mph - N/A   Clear
1:15 PM 61.2 °F - 51.6 °F 71% 29.96 in 10.0 mi WSW 6.9 mph - N/A   Scattered Clouds
1:55 PM 61.2 °F - 50.7 °F 69% 29.95 in 10.0 mi SW 5.8 mph - N/A   Clear
2:15 PM 61.3 °F - 50.4 °F 67% 29.95 in 10.0 mi South 3.5 mph - N/A   Clear
2:35 PM 61.7 °F - 49.8 °F 65% 29.94 in 10.0 mi Calm Calm - N/A   Clear
2:55 PM 62.6 °F - 50.9 °F 66% 29.94 in 10.0 mi Calm Calm - N/A   Clear
3:15 PM 62.2 °F - 50.4 °F 65% 29.93 in 10.0 mi SSE 3.5 mph - N/A   Clear
3:35 PM 62.4 °F - 50.2 °F 64% 29.94 in 10.0 mi South 3.5 mph - N/A   Clear
3:55 PM 61.9 °F - 50.9 °F 67% 29.93 in 10.0 mi Calm Calm - N/A   Clear
4:15 PM 61.9 °F - 51.1 °F 68% 29.93 in 10.0 mi SSE 4.6 mph - N/A   Scattered Clouds
4:35 PM 61.3 °F - 51.1 °F 69% 29.91 in 10.0 mi SSE 4.6 mph - N/A   Mostly Cloudy
4:55 PM 61.3 °F - 50.4 °F 67% 29.90 in 10.0 mi Calm Calm - N/A   Scattered Clouds
5:15 PM 59.9 °F - 50.4 °F 71% 29.90 in 10.0 mi Calm Calm - N/A   Clear
5:35 PM 59.2 °F - 50.4 °F 73% 29.91 in 10.0 mi Calm Calm - N/A   Mostly Cloudy
5:55 PM 58.6 °F - 50.9 °F 75% 29.90 in 10.0 mi Calm Calm - N/A   Overcast
6:15 PM 57.0 °F - 50.9 °F 80% 29.90 in 10.0 mi Calm Calm - N/A   Overcast
6:35 PM 58.1 °F - 51.8 °F 80% 29.90 in 10.0 mi SSE 4.6 mph - N/A Rain Rain
6:55 PM 57.7 °F - 53.1 °F 84% 29.89 in 5.0 mi SE 4.6 mph - 0.04 in Rain Rain
7:15 PM 57.0 °F - 53.1 °F 87% 29.89 in 2.5 mi Calm Calm - 0.06 in Rain Rain
7:35 PM 56.3 °F - 52.7 °F 88% 29.88 in 2.5 mi North 3.5 mph - 0.14 in Rain Rain
7:55 PM 55.9 °F - 52.7 °F 89% 29.88 in 2.0 mi Calm Calm - 0.22 in Rain Rain
8:15 PM 55.6 °F - 52.5 °F 89% 29.83 in 0.8 mi NNE 6.9 mph - 0.10 in Rain Heavy Rain
8:35 PM 55.9 °F - 52.9 °F 89% 29.84 in 2.5 mi East 6.9 mph - 0.12 in Rain Light Rain
8:55 PM 55.9 °F - 53.1 °F 90% 29.80 in 2.5 mi ENE 6.9 mph - 0.12 in Rain Light Rain
9:15 PM 55.9 °F - 53.1 °F 90% 29.81 in 2.5 mi East 3.5 mph - 0.02 in Rain Light Rain
9:35 PM 55.8 °F - 52.9 °F 90% 29.79 in 2.5 mi East 6.9 mph - 0.03 in Rain , Thunderstorm Light Thunderstorms and Rain
10:15 PM 55.6 °F - 52.7 °F 90% 29.74 in 2.5 mi ENE 6.9 mph - 0.06 in Rain Heavy Rain
10:35 PM 55.4 °F - 52.7 °F 91% 29.77 in 3.0 mi West 6.9 mph - 0.21 in Rain Heavy Rain
10:55 PM 55.6 °F - 52.7 °F 90% 29.76 in 2.0 mi NNW 10.4 mph - 0.67 in Rain Heavy Rain
11:15 PM 55.4 °F - 52.3 °F 89% 29.74 in 5.0 mi NE 6.9 mph - 0.04 in Rain Rain
11:35 PM 55.4 °F - 52.7 °F 91% 29.73 in 5.0 mi NE 6.9 mph - 0.08 in Rain Rain
11:55 PM 55.6 °F - 52.7 °F 90% 29.74 in 4.0 mi North 8.1 mph - 0.20 in Rain Rain